GFSNW_850_dewp_057.txt.gz
Dewpoint
1 1 1 1 1 2 2 2 2 1 -1 2 1 1 -0 -2 -4 -3 -2 -4 -4 -3 -3 -2 -2 3 3 -3 -3 -1 -3 -1 1 -0 -2 -3 -3 -1 0 7 7 6 6 6
0 1 1 1 2 2 2 2 1 1 -0 2 1 0 0 -1 -1 -2 -3 -3 -5 -5 -3 -1 5 4 2 2 2 -2 -2 -1 3 2 -1 -3 -2 -2 -1 1 5 6 8 7
0 1 1 1 1 2 2 1 1 1 2 -0 -1 0 1 1 -2 -2 -3 -3 -4 -5 -3 -3 4 4 3 4 4 -1 -2 -1 -1 3 2 -0 1 -1 -2 1 5 4 7 5
0 1 2 1 0 2 2 1 0 1 2 1 0 -2 -1 0 1 -3 -4 -3 -2 -2 -2 -1 0 4 6 5 4 1 0 0 -1 -1 -1 -0 1 1 -1 0 2 5 4 4
1 1 1 -0 -2 0 3 -0 1 1 -2 0 1 0 0 -0 -2 -2 -2 -3 -3 -3 -2 -3 0 5 6 6 6 5 2 2 0 0 -1 0 2 1 0 -1 1 2 2 2
-0 -0 -0 -1 -2 -1 2 1 0 -0 -0 0 1 1 -0 0 -2 -2 -4 -3 -3 -3 -3 -4 5 5 6 6 7 6 6 3 4 3 0 0 3 0 -0 0 -2 -1 -0 -2
-3 -2 -1 -1 -2 -2 -0 1 1 1 3 1 1 -0 -1 -0 -1 0 -3 -4 -3 -5 -4 3 4 3 4 4 4 6 7 6 4 5 3 6 1 -2 -3 -2 -2 -4 -5 -6
-2 -2 -2 -3 -3 -2 -0 0 1 1 2 1 -1 -1 -1 -2 -2 -1 -1 -3 -5 -5 -7 -1 4 5 4 4 4 5 6 7 6 6 5 3 1 -2 -2 -1 -1 -4 -5 -5
0 0 -1 -1 -2 -3 -1 0 -0 1 1 2 -1 -1 -1 -1 -0 -1 -2 -3 -3 -3 -4 1 2 4 5 5 4 4 4 6 6 6 7 6 3 1 -1 -2 2 -3 -3 -3
-1 -1 0 0 -0 -2 -1 0 0 0 -0 1 -0 -1 -1 -2 -2 -1 -2 -2 -1 -2 -0 2 3 5 3 4 4 3 5 5 7 7 8 6 1 -1 -2 2 2 -2 -3 -3
-1 -1 -1 0 1 0 -0 0 0 0 0 1 -0 -0 1 -1 -2 0 -1 0 0 2 1 1 2 1 2 2 1 4 5 6 6 7 8 8 3 2 -0 0 -3 -3 -4 -3
-0 -1 -2 -1 1 0 -0 0 0 -0 1 2 1 1 0 2 -1 -0 -2 -1 -1 1 2 2 2 1 2 1 2 0 6 4 6 5 5 4 1 4 4 3 4 1 1 1
0 -0 -1 -1 -0 0 -0 0 0 0 0 2 2 1 0 1 1 1 3 1 -0 2 1 3 3 1 1 2 -0 -1 1 2 3 4 3 0 -2 -0 -3 2 3 3 2 1
0 -1 -1 0 -0 0 -0 0 1 -1 1 1 2 -0 -0 -0 -1 -2 1 3 1 0 2 3 4 4 0 -0 1 1 1 1 2 3 2 2 1 -1 -3 -2 2 1 1 1
-1 -0 -1 -1 -0 -0 0 0 0 1 -2 0 0 1 1 1 -2 -2 -2 3 2 2 3 2 3 2 2 3 2 1 -1 -2 3 5 3 1 3 1 1 -1 -1 -0 1 1
-1 -0 -0 -1 0 1 1 1 1 1 -1 -0 1 -0 -1 0 -1 2 2 2 1 1 3 3 3 2 1 2 3 -1 -3 -4 -4 -4 -4 -1 -2 1 1 1 0 -0 -0 0
0 -0 0 -0 0 0 0 0 0 -1 -4 -0 0 0 -1 -2 -1 1 2 2 2 1 2 4 3 3 3 1 2 3 4 4 3 3 2 3 2 3 2 1 1 0 0 2
-0 -0 -0 0 1 0 -0 -0 -2 -1 -2 -2 -1 -1 0 -1 -0 2 1 2 2 2 2 3 4 3 4 3 1 1 2 3 3 3 3 3 3 2 2 1 1 1 1 1
0 0 0 -2 -2 -0 1 1 -0 -1 -0 0 -0 0 2 1 2 1 1 1 1 2 2 3 3 3 1 -0 -0 -0 -0 1 2 3 3 3 3 3 2 1 1 1 1 1
-0 -1 -2 -1 -1 -1 -0 0 0 1 1 0 -1 -0 1 1 1 2 1 2 0 3 2 3 3 0 -1 -2 -2 -2 -2 -0 1 2 2 2 2 2 2 1 1 1 1 1
-2 -0 -1 -0 -0 -1 -1 -1 -0 0 0 -0 0 1 1 1 2 2 2 1 1 2 2 3 2 -1 -2 -3 -3 -3 -3 -2 0 1 1 1 2 2 1 1 1 1 0 0
-0 -2 -2 -2 -0 0 -0 0 0 -1 0 1 1 1 1 1 1 1 2 2 2 3 2 1 -1 -3 -3 -4 -4 -4 -4 -3 -2 -1 -1 -0 1 1 1 0 -0 -0 -1 -2
-1 -1 -0 0 -0 -0 -2 1 1 1 -1 -1 -0 1 1 1 0 0 1 2 2 1 1 -2 -3 -3 -4 -4 -5 -5 -5 -5 -5 -5 -4 -3 -3 -3 -3 -4 -4 -4 -4 -4
-2 -2 -3 -3 -4 -3 -3 -3 -2 -2 -2 -2 -2 0 1 0 1 0 3 1 1 1 -1 -4 -4 -5 -5 -5 -6 -7 -7 -7 -7 -7 -6 -6 -6 -6 -6 -6 -6 -6 -6 -7
-6 -6 -3 -4 -4 -6 -5 -5 -3 -3 -4 -3 -1 0 1 0 0 -1 1 -0 -3 -3 -5 -5 -5 -6 -6 -6 -7 -7 -8 -8 -8 -8 -8 -8 -8 -8 -8 -8 -8 -8 -8 -8
-8 -8 -6 -7 -6 -7 -6 -6 -5 -6 -4 -2 -1 1 -2 -2 -3 -5 -3 -4 -5 -6 -6 -7 -7 -7 -7 -7 -8 -8 -8 -9 -9 -9 -8 -8 -8 -9 -9 -8 -8 -9 -9 -9
-6 -6 -7 -7 -7 -6 -6 -6 -6 -4 -3 -2 -3 -4 -4 -4 -5 -5 -5 -6 -7 -8 -8 -9 -8 -9 -8 -8 -8 -8 -9 -9 -9 -9 -9 -9 -9 -9 -10 -10 -10 -10 -10 -10

GFSNW_850_dewp_060.txt.gz
Dewpoint
-2 -1 0 1 1 1 2 2 2 1 1 1 0 1 -1 -2 -2 -3 -2 -2 -2 -2 -3 -2 -2 -1 -1 1 4 2 -1 -0 1 -1 -3 -3 -3 -0 1 5 6 6 6 5
-2 -1 0 1 1 1 2 2 1 1 1 1 1 -2 -2 -1 -1 -2 -2 -1 -2 -4 -4 -2 -1 0 -0 4 4 6 5 1 3 2 -2 -3 -2 -1 -1 1 4 4 7 6
-2 -0 0 0 1 1 1 1 1 1 1 -0 -1 -1 -1 -0 -2 -2 -2 -1 -2 -2 -1 -3 -1 -0 1 3 4 5 5 5 3 2 1 -0 0 -0 -1 0 5 4 6 4
-1 -0 0 0 1 1 2 0 0 1 2 1 0 -1 -2 -1 -0 -1 -2 -1 -1 -1 0 -1 -2 -1 5 4 5 5 6 8 3 1 -2 -2 0 0 0 -0 1 3 2 4
-0 -0 -0 0 0 1 2 -0 1 1 -0 0 1 -0 -0 -1 -1 -1 -0 -1 -3 -4 -1 -1 -1 -2 -2 5 5 6 5 7 6 3 0 -2 -1 -0 0 -0 -0 1 1 4
-0 -0 -0 0 0 1 2 1 1 1 0 1 2 1 -1 -1 -2 -2 -2 -2 -2 -2 -3 -5 -5 1 5 6 4 5 5 7 7 7 0 0 3 1 -0 1 1 1 3 1
-0 -0 0 0 1 1 1 1 1 1 2 1 1 -1 -1 -1 -1 -1 -3 -4 -2 -3 -4 -1 4 4 4 5 5 4 5 5 6 7 3 7 1 -1 -1 -0 -0 -1 -2 -3
-2 -1 -0 0 0 0 0 0 1 1 2 1 -1 -1 -1 -1 -2 -2 -1 -1 -2 -4 -3 0 -0 2 1 3 4 6 5 6 6 7 7 3 3 1 1 1 -0 -2 -3 -4
-2 -2 -3 -3 -1 0 -0 -0 -0 0 1 2 -1 -1 -2 -1 -0 -1 -1 -2 -2 -2 -2 -1 -0 -0 2 4 6 5 4 4 5 6 7 8 2 0 -1 -2 2 -3 -3 -2
-1 -2 -1 -3 -3 -2 -0 0 -0 -0 -1 1 1 -1 -1 -2 -1 -1 -2 -2 -2 -3 -0 1 2 1 -1 2 3 5 4 3 5 6 7 6 3 3 -2 3 1 -2 -2 -2
-0 -0 -0 -0 -1 -2 -2 -1 -0 -0 -0 -0 2 -0 -1 -1 -2 -0 -2 -1 -0 2 2 2 1 1 3 3 2 3 3 4 5 6 7 7 4 4 4 3 3 4 3 3
-1 -1 -1 -1 0 0 -1 -0 -1 0 -0 -0 0 1 1 -1 -2 -2 -2 -1 -1 0 2 1 0 0 -0 1 2 -1 4 3 4 4 4 2 4 3 3 3 2 2 3 2
-1 -1 -1 -1 -1 -1 -0 -0 -0 -0 0 0 -0 1 2 0 -1 1 -0 -1 -2 -0 -0 2 2 0 0 0 0 -2 -1 1 4 5 2 3 -1 0 1 -0 -1 -1 2 2
0 -0 -1 -1 -1 -1 0 0 0 -0 -0 0 0 -2 2 0 -1 -1 0 1 0 -0 0 2 1 1 1 0 -0 -1 -3 2 2 3 1 1 0 0 1 0 -2 -1 -1 2
-0 -0 0 -0 -1 -1 0 -0 0 0 -2 -0 1 1 -0 -1 -1 -2 1 -0 0 1 3 3 2 1 1 1 2 2 1 2 4 3 1 0 -0 -6 -4 -0 -2 -1 -1 1
0 0 1 -1 -1 1 -0 1 0 0 -1 1 1 -0 2 1 -1 -1 -0 -1 -2 -0 3 2 2 3 0 1 2 3 3 2 3 3 3 1 1 2 2 3 2 0 1 -1
-1 -1 -1 -1 -1 0 -0 -0 -0 0 -1 1 1 -0 0 0 0 0 1 2 2 2 3 3 3 3 3 1 2 1 2 1 3 3 3 3 2 2 2 1 1 1 1 1
-1 -0 1 0 -0 0 -1 1 -2 -1 0 -1 -0 -0 0 1 1 2 0 2 2 2 2 3 3 3 3 3 -1 -0 0 1 2 3 3 3 3 2 2 1 1 1 1 1
-0 -0 0 -0 0 0 0 1 1 1 -1 -1 -2 -1 1 1 1 1 1 1 1 2 0 2 2 2 -1 -2 -2 -1 -1 -1 0 2 2 2 2 2 2 2 1 1 1 1
0 -0 -1 -0 1 1 -1 -1 -2 -2 -1 -0 -2 -0 1 2 1 1 0 1 -0 3 2 3 -0 -1 -2 -3 -3 -3 -3 -2 -1 1 1 1 2 1 1 0 0 0 0 -1
-4 -2 0 0 -1 -3 -3 -0 -0 0 -1 -0 -0 0 1 1 1 2 1 1 1 2 2 1 -1 -3 -3 -4 -4 -4 -4 -4 -2 -2 -1 -1 0 -0 -0 -0 -0 -1 -1 -1
-2 -1 -1 -1 0 -0 -2 -0 -1 -1 2 -0 1 1 2 1 1 1 2 1 1 2 0 -3 -4 -3 -4 -5 -6 -6 -6 -5 -4 -3 -3 -3 -2 -3 -2 -3 -3 -3 -3 -3
-2 -2 -0 -3 -4 -5 -4 -0 -0 -1 -1 -2 -1 1 1 1 1 0 1 1 2 -0 -2 -4 -4 -5 -5 -6 -6 -7 -7 -6 -6 -6 -6 -5 -6 -5 -5 -6 -6 -6 -6 -7
-4 -5 -5 -6 -7 -5 -5 -5 -5 -3 -3 -3 -2 -1 0 -0 0 0 2 -1 -2 -4 -4 -6 -5 -6 -6 -7 -7 -8 -8 -8 -8 -8 -7 -8 -7 -8 -8 -8 -7 -7 -7 -8
-7 -7 -6 -6 -6 -6 -5 -5 -4 -5 -4 -3 -2 -0 -1 -1 -2 -3 -1 -3 -5 -5 -7 -6 -7 -7 -7 -8 -8 -9 -9 -9 -9 -9 -9 -9 -9 -9 -9 -9 -9 -9 -9 -9
-9 -8 -7 -7 -8 -8 -7 -6 -6 -5 -4 -2 -2 -2 -3 -3 -4 -5 -4 -6 -6 -7 -8 -8 -8 -8 -8 -8 -9 -9 -9 -10 -10 -10 -10 -10 -10 -10 -10 -9 -9 -9 -9 -10
-7 -7 -8 -8 -7 -7 -7 -6 -7 -5 -4 -4 -5 -6 -5 -6 -5 -6 -7 -8 -8 -9 -9 -10 -9 -10 -10 -10 -9 -9 -10 -10 -10 -10 -10 -10 -10 -10 -10 -11 -11 -11 -11 -11

GFSNW_850_dewp_063.txt.gz
Dewpoint
-5 -4 -3 -2 -1 1 1 2 2 2 1 1 0 -1 -3 -3 -3 -3 -2 -1 -1 -1 -3 -3 -2 -1 -3 3 4 5 2 1 2 -0 -3 -3 -2 0 1 4 5 5 4 3
-5 -4 -3 -2 -2 1 2 2 1 2 1 1 1 -2 -2 -2 -1 -2 -2 -1 -1 -4 -3 -3 -3 -1 -1 3 5 5 5 6 5 2 -0 -2 -2 -2 -1 2 3 5 6 4
-4 -3 -2 -2 -2 0 1 0 1 1 1 0 -1 -0 -1 -1 -3 -2 -2 -1 -2 -2 -1 -2 -2 -1 -3 -1 5 4 5 6 7 7 3 0 0 -1 -2 1 4 3 3 2
-3 -2 -1 -1 -1 -0 0 -0 -0 1 2 1 -0 -1 -1 -1 -2 -2 -2 -2 -2 -1 1 -1 -1 -2 -0 -0 3 5 5 7 7 6 5 3 2 0 -1 -1 1 3 1 2
-3 -3 -2 -1 -1 0 1 -1 0 1 0 1 0 -0 -0 -2 -2 -2 -0 0 -1 -2 -1 -1 -1 -2 -3 -0 2 5 5 6 6 5 4 4 4 -0 -1 -0 -0 1 0 1
-2 -2 -2 -2 -1 -0 0 -0 0 1 1 1 2 0 -1 -1 -2 -2 -4 -1 -1 -1 -2 -4 -4 -4 -3 1 5 4 5 5 6 5 5 4 4 3 0 -2 -2 1 2 0
-1 -1 -1 -1 -0 -0 -0 0 1 1 2 1 1 -0 -1 -1 -2 -2 -2 -2 -1 -2 -3 -2 -1 2 2 3 5 4 5 5 5 5 4 6 4 -0 0 -1 -1 -0 -0 -1
-1 -1 -0 -0 -0 -0 -0 0 1 1 1 1 0 0 -0 -2 -2 -2 -3 -4 -3 -4 -2 -1 0 0 2 3 5 5 3 4 6 5 5 3 0 1 1 2 1 -2 -1 -2
-1 -0 -0 -0 -0 -0 -0 0 0 1 1 2 1 0 -1 1 -1 -1 -2 -2 -2 -1 -1 -0 3 1 -0 4 5 5 5 4 4 6 6 5 -2 -1 -4 1 4 -1 -1 -2
-2 -2 -2 -1 -0 -0 -0 -0 -0 0 -0 1 1 1 0 -1 -1 -1 -2 -2 -1 -2 -1 2 2 2 -2 -1 5 5 5 5 6 6 5 5 2 4 4 8 5 4 4 3
-2 -2 -1 -1 -1 -1 -0 0 -0 0 -0 0 1 2 0 -1 -2 -1 -2 -1 -0 -0 0 1 1 0 1 0 1 3 4 4 4 4 5 5 3 3 6 4 4 3 2 2
-0 -2 -1 -1 -2 -1 -1 -1 -0 -0 -0 -0 -2 -0 1 1 -2 -2 -2 -2 -0 -0 0 0 -0 -0 -1 1 2 -0 3 1 3 3 3 1 1 -0 -1 0 4 3 2 2
-1 -1 -1 -0 -1 -1 -1 -1 -1 -1 -1 -0 -1 -0 -1 1 1 -1 -2 -1 -3 -1 -2 0 0 -1 -1 0 1 -1 -2 -0 2 3 1 0 -1 -2 1 3 4 3 1 1
-1 -1 -2 -1 -0 0 -1 -1 -1 -1 -0 0 -2 -3 -3 -2 2 2 -1 -2 -2 -2 -1 1 1 3 -0 -0 -2 -1 -2 -2 -2 -2 0 -1 0 -1 -1 -1 1 2 2 1
-1 -1 -1 -2 -1 -1 0 -1 -0 -2 -3 -1 -2 -2 -4 -2 1 1 0 1 1 1 1 2 3 1 2 2 2 1 3 3 3 3 3 4 2 1 0 -1 1 1 1 0
-0 -0 0 -1 -1 -0 0 -0 -1 -1 -3 -1 -1 -1 -1 -2 1 1 0 -1 -1 1 2 2 2 2 2 1 1 2 2 2 2 3 3 3 3 2 2 2 2 2 2 2
0 -0 -0 -0 -1 -0 -0 -0 -1 -1 -1 -0 0 -1 2 -1 1 1 0 1 1 1 1 2 2 3 3 1 2 -0 -0 0 1 2 2 4 3 2 2 1 1 1 1 1
-0 0 0 -0 0 -0 0 -2 -1 -1 0 0 1 1 2 2 2 2 1 2 2 2 2 2 3 3 2 -0 -1 -1 -1 -0 1 1 2 2 2 2 2 2 2 1 1 1
-0 -0 -0 -0 -0 0 -0 -0 0 0 -1 -0 -2 -1 2 2 1 1 2 1 1 2 1 2 2 0 -2 -2 -3 -3 -3 -2 -1 0 1 2 1 1 1 1 0 0 -0 -0
-1 -0 -0 -0 -0 1 1 0 -0 -0 0 0 -2 -0 2 2 1 -0 0 1 1 2 1 -0 -1 -3 -3 -4 -4 -5 -4 -4 -3 -1 -1 -1 -0 -1 -1 -1 -1 -2 -3 -3
-0 0 -0 -0 -0 -1 -0 -1 -0 -0 -2 -1 -0 -0 0 1 1 1 1 1 0 2 2 -0 -2 -3 -4 -5 -6 -6 -5 -5 -5 -4 -3 -3 -3 -4 -5 -5 -5 -3 -4 -6
-1 -1 -1 -0 -2 -2 -3 -3 -2 -1 -0 -1 1 1 1 1 1 1 1 2 1 1 -2 -3 -4 -4 -5 -6 -7 -7 -7 -6 -6 -6 -6 -6 -5 -5 -6 -6 -6 -7 -6 -7
-3 -4 -5 -6 -7 -7 -6 -1 -1 -2 -2 -3 -1 1 0 1 1 0 1 1 2 -2 -4 -5 -5 -6 -6 -7 -8 -8 -8 -8 -8 -8 -8 -7 -8 -7 -7 -8 -8 -8 -8 -8
-6 -7 -7 -7 -8 -6 -6 -5 -5 -4 -4 -4 -2 -1 -0 -1 -0 -1 -1 -3 -4 -5 -6 -6 -7 -7 -8 -8 -9 -9 -9 -9 -9 -9 -9 -9 -9 -9 -9 -9 -8 -8 -8 -8
-8 -9 -7 -7 -7 -7 -6 -6 -5 -5 -5 -3 -1 -1 -3 -3 -3 -4 -3 -6 -6 -7 -8 -8 -8 -8 -9 -9 -9 -10 -10 -10 -10 -10 -10 -10 -10 -9 -10 -9 -9 -9 -9 -9
-9 -9 -8 -9 -10 -9 -8 -7 -7 -5 -4 -3 -4 -4 -3 -4 -5 -5 -5 -8 -7 -8 -9 -9 -9 -9 -9 -10 -10 -10 -10 -10 -10 -10 -9 -9 -10 -10 -10 -10 -10 -10 -10 -10
-7 -8 -8 -9 -8 -8 -9 -8 -8 -5 -5 -5 -6 -7 -6 -6 -6 -8 -9 -9 -9 -10 -11 -10 -10 -10 -10 -10 -10 -10 -10 -10 -10 -10 -10 -11 -11 -10 -10 -11 -11 -11 -11 -12

GFSNW_850_dewp_069.txt.gz
Dewpoint
-5 -6 -6 -7 -6 -6 -4 -2 0 -0 -0 1 -0 1 -2 -4 -5 -3 -2 -1 -1 -1 -2 -3 -3 -0 1 -3 3 4 4 2 2 -1 -3 -3 -2 -0 1 4 3 5 4 3
-5 -6 -6 -6 -6 -6 -4 -1 -0 -2 1 1 1 1 0 -4 -2 -3 -2 -1 -1 -2 -2 -2 -4 -1 -2 -3 -2 4 3 5 6 3 1 3 4 2 2 2 2 3 6 3
-4 -7 -6 -6 -5 -5 -3 -1 -0 0 1 1 -1 1 0 -1 -3 -3 -2 -1 -2 -1 -1 -1 -1 -1 -3 -4 -4 -4 5 4 7 8 7 6 6 4 3 3 5 3 2 -0
-6 -7 -6 -6 -5 -5 -4 -2 -1 0 0 0 1 -0 -0 -1 -2 -3 -2 -1 -1 -1 -0 -1 -1 -2 -2 -4 -4 4 4 4 4 3 3 5 4 4 2 0 2 5 3 1
-7 -6 -6 -6 -5 -6 -3 -2 -1 -0 -0 1 1 0 2 -1 -2 -2 -2 -1 -1 -1 -1 -2 -3 -3 -3 -3 -1 0 0 5 6 6 4 4 4 3 1 0 2 2 1 1
-7 -6 -7 -7 -6 -4 -2 -2 -1 -0 -2 -0 2 1 -0 0 -2 -2 -3 -2 -2 -1 -1 -2 -3 -3 -3 -3 -2 -1 0 5 5 5 4 3 3 2 1 1 -0 1 2 -1
-3 -2 -2 -3 -4 -4 -3 -2 -1 -1 -1 1 1 2 -0 -1 -2 -2 -2 -3 -1 -2 -2 -1 -2 -1 -1 -2 -1 -2 -0 2 4 5 3 4 -4 -2 -1 1 -0 -0 -2 -1
-2 -2 -2 -2 -2 -2 -2 -1 -1 -0 -1 -2 0 1 1 -1 -2 -1 -2 -2 -3 -2 -1 3 2 0 1 2 -0 -0 -1 1 5 5 4 1 -2 -4 -3 -0 -1 2 5 4
-2 -1 -1 -1 -2 -2 -2 -2 -2 -0 -0 -0 -2 2 1 0 1 1 -1 -2 0 -0 2 3 2 1 -0 0 2 2 2 1 4 5 5 4 -2 -0 3 0 1 2 3 2
-2 -2 -1 -1 -1 -2 -2 -1 -2 -0 -0 -0 -1 -0 1 0 -0 1 -0 -0 1 1 3 2 2 0 -1 1 2 3 3 4 4 5 4 3 0 -1 4 3 2 2 1 1
-1 -2 -2 -1 -1 -2 -2 -2 -1 -1 -1 -0 0 -1 -0 2 1 1 -0 1 1 2 2 2 1 1 0 -1 0 3 2 4 4 3 5 4 -1 2 2 -2 -2 -0 -1 -0
-2 -2 -2 -1 -1 -1 -1 -1 -1 -1 -0 -0 -1 -1 -0 -2 -3 -0 -0 -1 -0 0 1 0 -0 1 0 0 1 0 1 2 3 3 2 0 1 2 -1 1 2 1 1 1
-1 -1 -1 -1 -1 -1 -1 -1 -0 -1 -1 -1 0 1 0 1 1 0 0 -0 -1 -1 -2 -0 -0 -0 -1 2 1 0 -1 -1 1 0 -2 -3 -5 -2 2 2 3 3 3 3
-1 -1 -1 -1 -1 -1 -1 -1 -1 -0 -1 0 -0 -1 1 1 1 1 0 -1 -1 -1 -2 0 0 1 -2 -0 -2 -1 -2 -2 -0 -1 -2 0 -2 2 3 2 2 2 2 2
-1 -1 -0 -1 -1 -1 -1 -1 -1 -1 -1 -0 -0 0 -0 -0 1 0 1 0 1 1 2 1 3 0 2 1 2 2 1 -0 1 -0 2 2 2 2 3 2 2 1 1 2
-0 -0 -0 -0 -1 -1 -1 -1 -1 -1 -0 -1 -0 -3 -3 -2 -2 1 1 1 2 2 2 2 2 1 0 2 2 1 1 1 1 1 1 2 1 3 2 2 1 0 -0 0
-1 -1 -0 -0 -1 -1 -1 -1 -2 -1 -1 -1 -2 -1 1 -2 -0 -0 1 0 0 1 1 1 2 2 1 2 2 -1 -1 -2 -1 -1 0 2 2 1 1 1 -0 -1 -1 -2
-1 -0 -0 -0 -1 -1 -0 0 -1 -1 -1 -1 1 1 1 -0 0 1 0 1 1 1 1 1 2 2 2 3 -3 -4 -4 -4 -2 -2 -1 -1 0 -0 -0 -0 -1 -2 -2 -5
-0 -0 -0 -1 -1 -1 -0 -0 -1 -1 -1 -1 -0 1 2 -0 0 1 1 1 1 2 1 2 2 0 1 -4 -5 -5 -5 -5 -4 -4 -3 -2 -2 -3 -3 -4 -4 -5 -3 -8
-0 -0 -0 -0 -0 -1 -1 -0 -0 -1 -0 0 -1 -0 2 -0 1 1 0 1 2 2 1 -1 -1 -4 -6 -6 -6 -7 -7 -7 -6 -5 -5 -5 -5 -5 -6 -7 -7 -8 -8 -9
-1 -1 -0 -0 -0 -1 -0 -1 -1 -1 -0 -1 -0 0 1 1 1 1 0 1 1 1 1 0 -3 -4 -6 -7 -7 -8 -8 -8 -7 -7 -7 -7 -7 -7 -8 -9 -9 -10 -10 -9
-1 -1 -1 -1 -1 -1 -0 -1 -1 -1 -0 -1 1 0 0 0 -0 1 -0 2 1 1 -3 -4 -5 -7 -7 -8 -8 -9 -9 -9 -9 -9 -9 -9 -9 -9 -10 -11 -11 -11 -11 -10
-2 -4 -9 -8 -9 -8 -7 -1 -3 -2 -4 -4 -2 0 -0 -0 1 0 1 -0 -2 -4 -5 -6 -7 -8 -8 -9 -9 -10 -10 -10 -10 -10 -10 -10 -10 -10 -10 -11 -11 -11 -10 -10
-10 -9 -9 -10 -10 -7 -7 -7 -6 -6 -5 -5 -2 -2 -2 -3 -3 -3 -3 -5 -6 -6 -6 -8 -8 -9 -9 -10 -10 -10 -11 -11 -11 -11 -11 -11 -11 -11 -11 -11 -10 -10 -10 -11
-9 -10 -9 -9 -8 -9 -8 -8 -7 -7 -5 -4 -2 -4 -5 -5 -5 -5 -6 -6 -7 -8 -8 -9 -9 -9 -10 -10 -10 -11 -11 -11 -11 -11 -11 -11 -11 -11 -11 -11 -11 -11 -11 -11
-11 -11 -10 -10 -10 -10 -10 -9 -8 -7 -5 -6 -6 -4 -5 -6 -7 -8 -8 -7 -8 -9 -10 -10 -10 -11 -11 -11 -11 -11 -11 -11 -11 -11 -11 -11 -11 -11 -12 -12 -12 -12 -12 -12
-10 -10 -10 -10 -10 -10 -10 -10 -9 -7 -7 -6 -7 -7 -7 -7 -8 -9 -10 -10 -10 -11 -12 -11 -11 -11 -11 -11 -11 -11 -11 -11 -11 -11 -11 -12 -12 -12 -11 -12 -13 -13 -13 -13